Temperature
18 16 16 17 17 19 19 20 20 20 21 20 20 19 20 20 20 19 20 20 20 21 21 21 21 20 20 20 20 20 19 19 19 19 18 18 18 18 17 17 17 17 17 16
17 17 18 18 18 19 19 19 19 19 20 21 19 19 19 19 19 20 20 19 20 20 20 20 20 20 20 20 20 19 19 19 19 19 18 18 18 17 17 17 17 17 17 16
18 18 19 19 19 19 19 19 19 20 20 20 20 19 19 19 19 20 20 20 20 20 20 20 20 20 20 20 20 19 19 19 18 18 18 17 17 17 17 17 17 17 16 16
18 18 19 19 19 19 18 19 19 20 19 18 19 18 18 18 18 18 19 19 19 19 19 19 20 20 20 20 19 19 19 19 18 18 18 17 17 17 17 17 17 16 16 16
18 19 19 19 19 19 19 20 20 20 19 18 18 18 17 17 18 18 18 19 19 19 19 19 19 20 19 19 19 19 19 18 18 18 17 17 17 17 17 17 17 16 16 16
18 19 19 20 20 20 20 19 18 16 16 17 18 17 17 17 18 18 18 19 19 19 19 19 19 19 19 19 19 19 18 18 18 17 17 17 17 17 17 17 16 16 16 16
19 19 19 20 20 19 19 17 17 17 16 16 17 17 17 18 18 18 18 18 19 19 19 19 18 18 19 18 18 18 18 18 18 17 17 17 17 17 17 17 16 16 16 16
18 18 19 19 19 19 18 17 17 17 16 16 17 17 17 18 18 18 18 18 18 18 18 18 18 18 18 18 18 18 18 18 17 17 17 17 17 17 17 16 16 16 16 16
16 17 19 20 19 19 17 16 17 16 16 16 16 16 17 18 18 17 17 17 18 18 18 18 18 18 18 18 18 18 18 18 17 17 17 17 17 16 16 16 16 16 16 16
17 17 18 19 19 18 17 16 14 15 16 16 17 17 17 18 18 17 16 17 17 18 18 18 18 18 18 18 18 18 18 17 17 17 17 17 16 16 16 16 16 16 15 15
16 17 17 18 18 18 17 16 14 13 14 15 16 16 17 17 17 16 16 17 17 18 18 17 18 18 18 17 17 17 17 17 17 17 17 16 16 16 16 16 15 15 15 15
15 14 15 17 18 18 17 16 14 15 15 14 15 16 17 16 16 15 16 16 17 17 17 17 17 17 17 17 17 17 17 17 16 16 16 16 16 16 15 15 15 15 15 15
15 14 15 16 17 17 17 16 15 14 13 13 14 16 16 15 15 15 16 16 16 16 17 17 17 17 16 16 16 16 16 16 16 16 16 16 15 15 15 15 15 15 15 15
15 13 14 16 16 16 16 16 15 14 14 13 14 16 15 15 15 14 15 15 15 16 16 16 16 16 16 16 16 16 16 16 16 15 15 15 15 15 15 15 15 15 15 14
14 14 14 15 16 16 16 16 16 15 14 14 15 15 15 14 14 14 14 15 15 15 15 15 16 16 16 15 15 15 15 15 15 15 15 15 15 15 14 14 14 14 14 14
12 13 14 15 16 16 16 16 16 16 15 15 15 15 14 14 14 14 14 14 14 14 15 15 15 15 15 15 15 15 15 15 15 14 15 15 14 14 14 14 14 14 14 14
11 12 13 13 14 15 15 15 15 15 15 15 15 14 13 13 13 13 13 14 14 14 15 15 15 15 15 15 15 15 15 15 14 14 14 14 14 14 14 14 14 14 14 14
11 11 11 12 14 15 14 14 15 15 14 14 14 13 13 12 13 13 13 14 14 14 15 15 15 15 15 15 14 14 14 14 14 14 14 14 14 13 14 13 13 13 13 13
10 11 10 11 13 13 14 14 14 14 14 13 12 12 12 12 12 13 13 14 14 14 14 14 14 14 14 14 14 14 14 14 14 13 13 13 13 13 13 13 13 13 13 13
10 10 10 10 13 13 13 14 14 14 13 12 12 11 11 12 12 12 13 13 13 14 14 14 14 14 14 14 13 13 13 13 13 13 13 13 13 13 13 13 13 12 12 12
11 10 10 10 11 12 12 13 14 14 13 13 12 12 11 11 12 12 13 13 13 13 13 13 13 13 13 13 13 13 13 13 13 13 13 12 13 13 12 12 12 12 12 12
10 10 10 9 11 12 12 12 12 12 12 12 12 12 12 12 12 12 12 12 12 12 12 12 12 12 13 13 13 13 13 13 12 12 12 12 12 12 12 12 12 12 12 11
9 9 9 9 10 11 11 12 13 13 12 12 12 12 12 12 12 12 12 12 12 12 12 12 12 12 12 12 12 12 12 12 12 12 12 12 12 12 12 11 11 11 11 11
9 8 8 8 9 10 11 12 12 12 12 12 12 12 12 12 12 12 12 12 12 12 12 12 12 11 11 12 12 12 12 12 12 12 12 12 11 11 11 11 11 11 11 11
9 8 8 8 9 10 11 12 12 12 12 12 12 12 12 12 11 12 11 11 11 11 11 11 11 11 11 11 11 11 11 11 11 11 11 11 11 11 11 11 11 11 11 11
7 8 8 9 10 9 11 11 11 11 11 11 11 11 12 12 11 11 11 11 11 11 11 11 11 11 11 11 11 11 11 11 11 11 11 11 11 11 10 10 10 10 10 11
Wind_Speed
3 4 5 8 8 6 4 3 4 6 3 1 4 6 7 5 4 6 6 7 8 9 6 4 5 5 5 6 6 7 7 6 6 4 4 3 2 2 2 2 4 5 5 5
4 4 8 5 5 4 3 3 5 5 2 2 3 5 6 5 7 8 8 8 8 6 4 4 5 6 7 7 7 7 7 7 6 5 4 3 3 2 2 2 3 4 4 5
7 5 4 6 5 5 5 6 6 5 4 2 0 4 3 3 3 3 5 6 7 8 7 7 7 7 7 8 8 8 7 7 6 5 4 3 3 2 1 1 1 2 4 5
5 5 4 5 5 7 6 7 7 4 1 3 1 3 6 4 4 4 5 5 6 6 6 6 7 7 7 8 7 7 7 7 6 6 6 6 4 3 3 2 2 2 3 4
6 5 6 6 7 8 8 4 4 4 4 1 1 2 7 2 4 7 7 7 7 6 7 7 7 7 7 7 7 6 6 6 6 6 7 6 4 3 2 2 2 2 1 3
6 4 5 7 4 6 4 4 5 5 4 2 5 5 6 4 6 6 6 6 7 6 6 6 4 4 5 5 5 6 6 6 6 7 7 7 7 5 4 3 3 2 2 2
3 3 3 3 3 2 4 5 3 3 2 6 3 4 7 7 6 6 7 6 6 6 6 6 5 5 5 5 6 6 7 6 6 7 7 7 7 7 6 5 5 4 3 2
2 5 4 3 6 6 5 8 7 5 5 5 1 5 7 5 4 3 3 4 4 4 5 6 6 5 5 6 6 7 7 7 7 7 7 7 7 5 5 5 4 5 4 4
5 5 4 2 3 8 6 4 5 6 2 1 4 5 6 2 2 2 1 2 3 4 4 5 4 5 5 6 7 7 8 7 7 7 6 5 5 5 5 5 4 3 3 3
6 4 4 3 3 2 6 8 6 5 4 3 4 4 5 4 2 2 0 2 2 2 3 3 3 4 4 5 5 6 6 6 6 6 5 5 4 5 5 4 4 4 3 2
4 4 4 2 2 4 4 4 5 5 5 5 4 6 5 6 4 3 3 1 1 2 3 3 3 3 3 3 3 4 4 5 5 5 5 4 4 4 3 4 4 3 3 3
3 4 2 5 4 2 5 6 7 5 4 4 4 7 4 3 3 2 1 1 1 1 1 2 2 3 3 2 2 3 4 5 5 5 4 4 4 3 4 4 3 3 3 3
4 5 1 5 4 2 2 2 4 5 5 5 5 7 3 1 1 0 1 0 1 2 2 2 3 3 3 2 2 2 3 4 4 4 4 3 3 4 4 4 3 3 3 3
4 4 6 7 6 3 2 2 3 5 4 5 7 7 6 4 3 2 0 1 2 1 2 3 2 2 2 2 2 2 2 2 3 4 4 4 3 4 4 4 4 3 3 4
4 3 4 4 4 3 4 4 4 5 7 8 7 7 8 5 3 1 0 1 2 1 1 2 2 1 1 1 2 2 2 2 3 4 4 4 3 3 2 3 3 3 4 4
3 3 2 2 2 2 3 4 4 4 4 5 5 6 5 3 1 2 2 2 2 2 2 2 2 2 1 1 2 2 2 2 3 3 4 3 3 2 2 3 3 3 3 3
2 3 2 2 3 2 3 4 4 3 3 4 6 6 2 2 3 4 3 3 3 3 2 2 2 1 1 1 2 2 2 2 2 2 2 3 3 3 3 3 2 3 3 3
4 4 3 1 1 4 5 2 3 3 2 2 3 3 3 3 2 1 2 3 3 2 2 1 2 1 1 0 0 1 1 2 2 2 2 2 3 3 2 2 3 3 3 3
4 6 3 3 3 4 4 2 2 3 2 2 2 2 1 1 1 2 1 1 3 2 1 1 1 2 2 2 1 1 1 1 2 2 2 3 3 3 2 2 3 2 2 2
4 4 4 3 3 6 5 3 2 2 2 2 3 3 2 1 1 3 1 0 0 1 1 1 1 2 2 2 2 2 1 1 2 3 3 2 3 3 3 3 2 2 2 2
3 2 3 3 3 5 5 4 0 4 4 2 3 3 2 2 3 2 1 1 0 1 1 1 2 1 1 2 2 2 0 2 3 2 2 2 2 2 2 2 1 1 1 1
3 3 3 3 3 6 3 1 3 4 1 1 2 2 2 1 0 1 1 1 1 1 1 2 2 1 1 1 2 2 2 3 2 2 2 2 1 1 1 2 1 1 2 1
3 4 4 5 6 5 3 3 3 1 1 1 1 1 2 1 1 1 1 1 2 2 1 1 2 1 1 1 2 2 3 2 1 2 2 1 1 1 1 2 2 2 2 2
2 1 2 2 5 5 4 3 2 1 2 2 2 2 2 2 2 2 1 2 2 2 2 1 1 2 2 2 2 3 3 2 2 3 2 1 1 1 1 1 2 2 3 2
3 1 1 3 5 5 4 2 1 1 1 1 0 1 2 2 2 2 2 2 2 2 2 2 2 3 4 3 3 3 3 3 3 2 2 1 1 1 1 1 2 3 3 4
3 4 4 5 5 3 4 3 1 1 1 0 0 1 1 1 3 3 3 3 3 3 2 2 3 3 4 3 3 3 3 4 4 3 2 2 1 1 1 1 1 1 1 2
Wind_Direction
110 106 193 205 190 181 173 191 254 262 267 252 253 266 265 242 203 202 201 197 202 210 208 188 184 177 164 163 164 165 165 164 155 155 158 158 171 169 165 171 158 156 157 162
69 240 224 179 169 177 195 244 268 288 289 208 256 279 266 230 216 207 202 206 208 210 204 193 184 181 179 177 175 172 173 170 168 169 165 159 151 160 178 176 159 161 164 162
180 231 175 156 173 186 216 209 231 245 334 11 305 309 285 269 240 224 213 208 205 200 201 200 191 192 187 185 182 182 178 173 170 158 137 118 99 81 109 151 181 180 172 169
219 241 172 175 203 178 240 225 211 219 226 280 164 271 282 269 272 246 236 219 212 207 199 196 192 191 194 196 184 177 175 169 166 156 155 156 163 174 195 187 195 182 174 178
226 202 178 202 216 179 214 212 189 197 183 249 307 206 282 282 261 254 240 229 220 208 199 197 196 196 197 190 181 177 169 167 166 165 165 166 171 177 171 160 163 178 196 193
236 221 193 207 205 177 171 78 57 53 90 238 230 187 270 243 236 253 240 227 215 209 199 192 183 180 189 182 174 173 172 172 168 171 172 174 174 170 165 177 184 194 203 207
296 278 245 176 134 90 114 100 29 350 2 244 234 187 246 250 238 238 242 231 212 199 187 177 174 177 182 187 185 178 174 178 178 177 182 184 183 180 188 194 197 194 198 208
207 285 255 193 177 179 172 148 165 200 221 264 262 224 251 267 278 257 232 211 182 174 177 178 183 182 187 194 188 175 176 183 184 187 193 190 186 187 197 199 195 195 202 210
183 251 287 229 179 143 141 174 169 142 171 246 268 275 295 282 340 16 88 131 164 172 176 181 182 179 182 185 188 184 181 181 184 190 190 190 189 190 196 195 186 191 198 198
164 225 287 291 86 64 142 144 108 131 163 239 275 260 247 255 263 327 55 179 175 159 166 177 178 177 178 181 180 175 174 181 181 182 183 182 184 192 194 185 188 189 199 193
136 169 307 5 168 187 118 118 122 134 160 169 237 261 234 223 223 220 230 228 193 173 175 181 176 167 157 147 149 157 163 165 171 179 177 175 185 184 176 180 191 181 180 180
141 129 250 269 265 203 161 165 149 159 208 184 188 258 273 224 231 210 224 344 14 112 145 146 132 118 118 132 146 154 163 172 181 177 168 178 182 178 179 186 187 178 181 194
135 123 80 338 340 21 92 137 150 135 132 164 184 258 304 347 336 277 167 83 71 92 88 83 90 110 118 132 143 156 164 172 172 162 160 169 183 186 189 195 190 184 194 202
126 131 170 200 220 204 222 214 161 137 162 202 218 246 286 297 300 304 27 84 85 93 94 89 86 87 115 131 130 137 143 146 150 151 156 172 193 203 202 195 193 192 199 207
106 157 204 232 242 213 217 223 196 184 189 195 225 229 252 258 241 226 107 93 108 120 98 109 112 102 91 104 101 104 119 129 139 149 162 187 195 198 197 199 205 200 201 218
79 146 163 281 282 224 239 240 216 209 203 210 221 248 249 252 165 173 182 169 170 195 210 193 156 125 113 116 133 134 145 153 146 157 180 182 179 181 189 204 212 209 211 221
101 130 129 247 297 7 253 233 208 199 209 191 219 235 228 221 206 209 208 197 204 219 217 208 195 165 167 186 168 172 176 149 142 159 174 175 179 187 199 203 199 214 222 224
144 134 140 172 81 232 244 278 189 179 217 225 230 247 233 225 240 241 223 207 211 212 212 212 190 165 158 157 162 157 133 140 154 166 176 178 179 191 192 185 208 223 227 225
155 144 133 141 202 268 287 280 169 172 261 255 223 233 305 119 66 352 340 187 188 197 219 216 175 161 154 163 171 111 110 138 161 196 207 198 187 187 189 199 227 235 222 226
64 108 123 140 181 228 250 290 289 132 267 240 187 198 211 104 213 274 299 357 148 127 152 145 130 132 144 158 148 128 143 180 216 225 217 201 190 191 205 214 230 235 213 228
68 70 134 164 216 257 275 296 34 171 242 223 187 189 179 198 225 250 279 318 354 154 158 145 139 154 186 162 144 143 194 249 243 222 185 173 184 195 210 209 217 197 178 189
166 159 179 158 201 251 294 97 179 222 255 169 189 193 175 195 194 335 331 302 273 238 181 163 157 198 249 180 156 173 243 261 240 181 164 169 173 189 198 196 201 182 159 162
186 189 187 191 217 257 278 239 258 191 185 221 189 201 159 160 209 269 269 265 268 254 241 199 174 198 255 216 180 206 251 247 197 160 165 181 170 183 199 202 200 189 176 188
294 154 165 249 274 277 290 297 305 186 202 206 199 198 182 194 235 254 263 271 267 259 244 220 184 217 248 247 242 237 240 209 178 173 180 187 181 214 220 207 198 192 196 203
253 200 196 255 282 311 318 310 311 5 34 46 134 194 195 182 227 234 240 247 247 257 253 215 210 235 251 255 260 253 229 183 179 179 178 180 194 204 222 221 213 216 222 215
221 198 194 235 243 230 270 294 342 17 326 295 59 26 341 246 245 241 236 238 232 239 247 236 228 237 250 251 256 255 223 187 179 183 187 184 191 210 221 235 277 293 264 247
Height
1476 1483 1488 1486 1485 1487 1488 1491 1493 1488 1481 1483 1485 1484 1480 1477 1478 1479 1479 1480 1481 1482 1484 1487 1489 1491 1493 1495 1496 1498 1500 1502 1504 1506 1508 1509 1511 1513 1514 1516 1517 1518 1520 1521
1481 1484 1479 1479 1482 1484 1487 1491 1492 1486 1480 1482 1485 1484 1478 1476 1476 1476 1477 1478 1479 1480 1482 1484 1486 1488 1490 1492 1494 1496 1498 1500 1502 1505 1507 1508 1510 1512 1514 1515 1516 1517 1519 1520
1480 1477 1474 1478 1481 1485 1487 1490 1489 1488 1483 1482 1485 1487 1481 1476 1475 1475 1476 1476 1477 1478 1479 1481 1483 1485 1487 1489 1491 1493 1495 1498 1500 1503 1505 1507 1509 1511 1512 1513 1514 1516 1517 1518
1476 1472 1473 1476 1479 1482 1489 1480 1482 1484 1490 1496 1489 1501 1485 1478 1476 1474 1473 1474 1474 1476 1477 1479 1480 1482 1484 1486 1489 1491 1494 1496 1499 1501 1503 1505 1506 1507 1510 1511 1513 1514 1515 1516
1473 1470 1471 1475 1474 1475 1478 1474 1478 1481 1488 1496 1494 1499 1491 1480 1478 1473 1471 1471 1472 1473 1475 1476 1477 1479 1482 1484 1487 1489 1492 1494 1497 1499 1501 1502 1504 1506 1508 1510 1511 1513 1514 1515
1468 1465 1466 1467 1466 1469 1471 1476 1482 1489 1495 1505 1495 1499 1494 1482 1475 1470 1467 1468 1469 1470 1472 1473 1475 1478 1480 1482 1485 1487 1490 1492 1494 1496 1498 1500 1502 1504 1506 1507 1509 1510 1512 1512
1471 1466 1463 1462 1467 1469 1473 1487 1503 1504 1512 1507 1492 1494 1490 1472 1467 1466 1465 1465 1466 1467 1469 1470 1472 1474 1476 1479 1481 1484 1487 1489 1492 1494 1496 1498 1500 1502 1503 1505 1507 1508 1509 1510
1479 1478 1464 1461 1465 1471 1475 1483 1502 1509 1511 1504 1493 1494 1480 1466 1463 1462 1462 1462 1463 1465 1466 1468 1470 1472 1474 1476 1479 1481 1484 1486 1489 1491 1493 1495 1497 1499 1501 1503 1504 1506 1507 1508
1478 1477 1461 1458 1459 1464 1475 1482 1481 1496 1498 1503 1497 1487 1474 1464 1463 1461 1461 1462 1462 1464 1465 1466 1469 1471 1472 1474 1477 1479 1481 1483 1486 1488 1491 1493 1495 1497 1499 1500 1502 1503 1504 1505
1468 1474 1464 1459 1459 1463 1466 1474 1488 1497 1505 1506 1495 1488 1483 1468 1464 1462 1462 1462 1462 1463 1464 1466 1468 1470 1471 1473 1475 1477 1480 1481 1484 1486 1488 1491 1493 1495 1496 1498 1499 1500 1502 1503
1464 1473 1470 1464 1465 1468 1471 1476 1483 1493 1496 1503 1503 1492 1468 1466 1463 1463 1462 1462 1462 1463 1464 1466 1467 1469 1470 1472 1474 1476 1478 1480 1482 1484 1486 1489 1491 1492 1494 1495 1497 1498 1500 1501
1465 1473 1478 1470 1461 1460 1463 1470 1479 1489 1494 1497 1498 1489 1462 1462 1461 1461 1462 1462 1462 1464 1465 1466 1467 1468 1470 1472 1473 1475 1477 1479 1481 1482 1485 1487 1488 1490 1492 1493 1494 1496 1497 1498
1463 1473 1482 1477 1472 1466 1466 1468 1472 1480 1490 1497 1497 1484 1462 1461 1461 1461 1461 1462 1462 1463 1464 1465 1466 1468 1469 1471 1473 1474 1475 1477 1479 1481 1483 1485 1487 1489 1490 1491 1492 1494 1495 1496
1458 1471 1477 1480 1475 1469 1468 1468 1470 1476 1487 1490 1485 1475 1466 1463 1462 1461 1461 1461 1462 1464 1464 1465 1466 1467 1469 1470 1472 1473 1474 1476 1477 1479 1480 1482 1485 1487 1488 1489 1490 1491 1492 1493
1459 1469 1468 1467 1464 1464 1464 1465 1466 1470 1473 1478 1474 1471 1464 1462 1461 1461 1461 1461 1462 1464 1464 1465 1466 1467 1468 1470 1471 1472 1473 1475 1476 1477 1479 1480 1482 1484 1486 1486 1487 1489 1490 1490
1461 1467 1467 1467 1463 1462 1464 1462 1462 1464 1465 1467 1467 1466 1460 1460 1460 1460 1461 1461 1462 1463 1464 1465 1466 1467 1468 1469 1470 1472 1473 1474 1474 1475 1477 1478 1480 1482 1483 1484 1485 1486 1486 1487
1465 1467 1472 1474 1466 1464 1469 1462 1461 1462 1461 1463 1465 1462 1459 1459 1459 1459 1459 1460 1461 1462 1463 1464 1464 1466 1467 1468 1469 1470 1471 1472 1473 1474 1475 1476 1477 1478 1479 1480 1482 1482 1483 1483
1464 1469 1475 1475 1471 1475 1466 1457 1456 1458 1459 1459 1458 1458 1457 1458 1458 1458 1459 1459 1460 1461 1462 1463 1464 1465 1466 1468 1469 1469 1470 1471 1471 1472 1473 1474 1475 1476 1477 1477 1478 1479 1479 1479
1459 1466 1474 1478 1476 1470 1462 1457 1456 1458 1459 1457 1457 1457 1457 1457 1457 1458 1458 1458 1459 1460 1461 1462 1463 1464 1465 1466 1467 1468 1469 1469 1470 1470 1471 1472 1473 1473 1474 1474 1475 1475 1475 1476
1461 1463 1472 1477 1475 1474 1463 1455 1454 1457 1460 1456 1455 1455 1456 1456 1459 1458 1457 1457 1458 1459 1460 1461 1461 1463 1463 1465 1466 1467 1467 1468 1468 1468 1469 1470 1470 1470 1471 1472 1472 1473 1472 1473
1467 1469 1472 1475 1474 1468 1459 1454 1454 1463 1460 1454 1453 1454 1454 1455 1456 1456 1456 1456 1456 1457 1458 1459 1460 1461 1461 1462 1464 1465 1465 1466 1466 1467 1467 1468 1468 1468 1468 1469 1470 1470 1470 1470
1467 1471 1473 1475 1474 1470 1455 1454 1457 1456 1452 1452 1452 1452 1453 1453 1453 1454 1454 1455 1455 1456 1456 1457 1458 1459 1460 1460 1461 1462 1463 1464 1464 1465 1465 1465 1465 1465 1466 1467 1467 1468 1468 1468
1466 1466 1467 1468 1466 1457 1454 1453 1452 1451 1451 1451 1451 1452 1452 1452 1452 1452 1453 1453 1454 1455 1455 1456 1456 1457 1458 1459 1459 1460 1461 1462 1462 1462 1462 1463 1463 1464 1464 1464 1465 1465 1465 1466
1463 1463 1464 1464 1458 1454 1453 1451 1451 1451 1450 1450 1451 1451 1451 1450 1450 1451 1451 1451 1452 1453 1453 1454 1455 1455 1456 1457 1457 1458 1459 1459 1459 1460 1460 1461 1461 1462 1462 1462 1462 1462 1463 1464
1463 1462 1462 1461 1456 1453 1451 1451 1450 1450 1450 1449 1449 1449 1449 1449 1449 1449 1449 1450 1450 1450 1451 1452 1452 1453 1454 1455 1455 1456 1456 1457 1457 1457 1458 1458 1459 1459 1459 1460 1460 1460 1461 1462
1460 1460 1460 1459 1454 1454 1451 1450 1450 1449 1449 1449 1448 1448 1448 1448 1447 1447 1447 1447 1448 1448 1449 1449 1450 1451 1452 1452 1453 1453 1454 1454 1455 1455 1455 1456 1457 1457 1457 1458 1458 1459 1460 1460